Location: Chiroubles
(46.1812°N, 4.6660°E)
Time: 16:28:33
(UTC+00:00)

Transit 4A - Pass Details

Date: 01 December 2020
Orbit: 864 x 980 km, 66.8° (Epoch: 26 January)

Event Time Altitude Azimuth Distance (km) Brightness Sun altitude
Rises 15:22:02 0° 327° (NNW) 3,686 11.0 4.1°
Reaches altitude 10° 15:24:39 10° 330° (NNW) 2,727 10.3 3.8°
Maximum altitude 15:31:02 71° 54° (NE) 1,015 8.1 2.9°
Drops below altitude 10° 15:37:13 10° 139° (SE) 2,648 10.2 2.0°
Sets 15:39:43 0° 141° (SE) 3,572 10.9 1.7°
